Location: Anciles
(42.5833°N, 0.5167°E)
Time: 03:29:20
(UTC+00:00)

PSLV R/B - Pass Details

Date: 10 December 2019
Orbit: 567 x 600 km, 98.1° (Epoch: 19 January)

Event Time Altitude Azimuth Distance (km) Brightness Sun altitude
Rises 17:18:47 0° 9° (N) 2,832 7.1 -9.8°
Reaches altitude 10° 17:20:58 10° 7° (N) 1,921 6.3 -10.1°
Maximum altitude 17:25:05 63° 286° (WNW) 656 4.4 -10.8°
Drops below altitude 10° 17:29:07 10° 206° (SSW) 1,886 7.3 -11.5°
Sets 17:31:16 0° 203° (SSW) 2,775 8.1 -11.9°
